Regional Weather Roundup
Issued by NWS

Home | Current Version | Previous Version | Graphics & Text | Print | Product List | Glossary On
Versions: 1 2 3 4 5 6 7 8 9 10 11 12 13 14 15 16 17 18 19 20 21 22 23 24 25 26 27 28 29 30 31 32 33 34 35 36 37 38 39 40 41 42 43 44 45 46 47 48 49 50
000
ASUS43 KLSX 202107
RWRMO

WEATHER SUMMARY FOR MISSOURI
NATIONAL WEATHER SERVICE SPRINGFIELD MO
300 PM CST MON NOV 20 2017

NOTE: "FAIR" INDICATES FEW OR NO CLOUDS BELOW 12,000 FEET WITH NO
       SIGNIFICANT WEATHER AND/OR OBSTRUCTIONS TO VISIBILITY.
       CURRENT SKY AND/OR WEATHER CONDITIONS ARE NOT AVAILABLE FOR
       CHILLICOTHE AND FARMINGTON.

MOZ001>031-035>038-043-044-053-054-202200-
...NORTHERN AND WESTERN MISSOURI...

CITY           SKY/WX    TMP DP  RH WIND       PRES   REMARKS
KANSAS CTY INT PTSUNNY   60  27  28 SW25G38   29.73F
KANSAS C DTWN  SUNNY     63  29  27 S28G38    29.75F
LEE`S SUMMIT   SUNNY     60  29  30 SW30G40   29.77F
ST JOSEPH      SUNNY     63  26  24 SW28G35   29.69F
CHILLICOTHE      N/A     62  26  25 S20G30    29.75F
KIRKSVILLE     SUNNY     60  30  32 SW20G31   29.75F

$$
MOZ066>068-077>081-088>096-101>105-202200-
...SOUTHWEST MISSOURI...

CITY           SKY/WX    TMP DP  RH WIND       PRES   REMARKS
SPRINGFIELD    SUNNY     62  26  25 SW21G31   29.91F
JOPLIN         SUNNY     60  29  30 S21G32    29.90F
BRANSON        MOSUNNY   61  23  23 S9G18     29.96F

$$
MOZ032>034-039>042-045>050-055>058-069>072-202200-
...CENTRAL MISSOURI...

CITY           SKY/WX    TMP DP  RH WIND       PRES   REMARKS
COLUMBIA       SUNNY     61  28  28 SW17G32   29.84F
JEFFERSON CITY SUNNY     63  24  22 S20G30    29.85F
ROLLA          SUNNY     60  25  26 S15G29    29.91F
SEDALIA        SUNNY     62  31  31 SW23G33   29.84F
WHITEMAN AFB   MOSUNNY   60  28  29 SW28G39   29.77F
WARRENSBURG    SUNNY     59  28  31 S21G35    29.81F
OSAGE BEACH    SUNNY     62  29  28 S16       29.89F

$$
MOZ051-052-059>065-202200-
...EAST CENTRAL MISSOURI...

CITY           SKY/WX    TMP DP  RH WIND       PRES   REMARKS
ST LOUIS INTL  MOSUNNY   61  25  25 S20G25    29.91F
SPIRIT OF STL  SUNNY     62  23  22 SW13G24   29.89F
ST CHARLES     SUNNY     61  26  26 S17       29.89F

$$
MOZ072>076-082>087-097>100-106>115-202200-
...SOUTH CENTRAL AND SOUTHEAST MISSOURI...

CITY           SKY/WX    TMP DP  RH WIND       PRES   REMARKS
CAPE GIRARDEAU SUNNY     51  31  46 S17G23    30.05F
FARMINGTON     SUNNY     56  27  32 S16       29.96F
POPLAR BLUFF   SUNNY     54  30  40 S13       30.05F
WEST PLAINS    SUNNY     58  24  27 S13G20    29.99F

$$



USA.gov is the U.S. government's official web portal to all federal, state and local government web resources and services.